Dewpoint
50 51 51 51 51 52 53 55 55 55 55 56 55 55 56 56 54 52 51 52 52 51 47 41 34 34 32 31 28 33 30 29 27 33 41 28 19 23 19 24 26 24 25 17 18 17 16 42 36 36 47 50 51 52
50 50 51 51 51 52 53 54 54 55 55 55 55 55 55 56 54 52 50 53 53 51 50 46 38 38 37 34 27 31 30 32 28 35 45 31 26 27 27 28 33 23 23 26 31 34 45 43 46 48 47 48 50 52
50 50 51 52 52 53 53 54 54 54 54 55 54 54 55 55 53 51 52 52 53 51 48 39 34 40 38 36 32 31 31 34 35 38 30 39 33 25 21 23 32 32 33 31 28 28 32 36 44 46 47 49 51 52
51 52 52 52 53 53 53 53 53 54 54 54 54 54 55 54 53 52 53 54 54 52 44 34 39 41 42 38 36 35 35 36 35 28 28 34 24 29 24 29 29 33 38 34 34 35 35 39 40 42 45 49 50 53
52 52 52 53 53 53 53 53 53 53 53 53 54 54 55 53 52 52 54 55 56 51 41 34 37 36 36 38 35 36 34 35 31 30 29 31 25 31 28 30 26 31 35 31 28 36 38 42 45 45 45 48 50 53
52 53 53 53 53 53 53 53 53 53 53 54 54 53 53 52 52 53 48 55 53 50 44 33 37 37 36 36 36 37 36 34 32 29 28 32 41 33 35 33 34 33 36 34 34 37 38 40 43 43 45 48 50 53
53 53 53 53 53 53 53 53 53 53 53 53 52 52 52 52 54 52 48 49 49 48 47 35 34 36 36 35 33 33 34 34 31 30 32 29 33 33 28 40 37 36 34 38 37 39 38 40 40 42 46 48 51 54
53 53 53 53 53 53 53 52 52 52 52 52 52 51 51 51 51 51 49 49 49 50 41 33 36 35 37 32 33 33 31 33 33 30 34 30 37 35 37 39 39 37 37 38 38 37 36 39 42 44 46 47 51 53
52 52 52 52 52 52 52 52 52 51 51 51 51 51 52 50 52 45 50 52 51 49 42 34 34 31 36 35 37 35 35 32 40 33 31 32 32 35 37 40 41 40 39 39 39 38 36 36 37 39 42 46 47 51
52 52 52 52 52 52 52 52 51 50 50 50 50 48 46 47 51 50 48 42 40 40 40 37 32 35 33 34 35 35 34 34 33 32 37 35 32 35 36 39 42 41 41 38 38 38 38 39 39 39 41 45 46 50
51 52 52 52 52 51 51 50 50 49 48 49 51 47 47 49 47 44 42 41 37 37 34 34 35 35 34 34 35 37 35 35 34 36 36 36 37 36 40 41 42 42 41 40 41 42 42 44 42 40 44 45 46 49
51 52 52 51 51 50 49 49 49 48 53 52 47 47 46 48 44 40 42 42 41 39 37 32 34 36 34 39 38 37 35 38 35 39 37 37 38 44 43 41 41 41 40 40 41 43 43 44 44 45 45 48 48 50
51 51 51 50 51 50 50 50 51 51 51 52 49 42 44 41 40 36 37 42 44 40 41 38 36 38 39 37 37 37 34 36 39 38 36 36 48 45 44 42 41 43 40 41 41 42 43 43 45 45 46 48 47 50
51 51 50 50 50 50 50 50 50 50 51 50 42 39 38 35 36 40 41 44 48 49 48 50 46 38 39 35 42 38 38 43 38 37 36 41 47 46 44 43 43 42 42 41 42 43 44 45 45 45 47 47 46 46
51 51 50 50 50 50 50 50 51 52 54 45 44 38 41 44 44 45 45 47 48 48 46 48 50 48 45 42 44 40 39 37 40 40 37 45 48 46 44 43 43 42 42 42 42 44 45 46 46 46 46 45 44 44
51 50 48 50 50 50 49 50 52 53 49 44 42 42 42 42 43 43 43 45 47 43 46 46 43 39 41 43 39 36 35 40 38 38 45 47 47 46 46 43 43 43 43 43 44 45 44 44 45 46 45 44 43 41
50 49 50 50 50 49 50 49 53 43 43 41 41 41 41 41 41 43 44 46 49 45 43 42 39 37 41 38 39 41 40 42 44 45 45 49 48 47 46 45 43 44 45 45 44 44 44 44 45 44 44 44 44 45
48 50 50 49 49 50 50 52 45 39 36 40 38 37 42 40 40 43 46 50 49 43 42 38 39 35 35 36 37 39 42 44 47 46 45 48 48 48 47 47 46 45 46 44 45 45 44 43 42 41 44 46 43 43
49 48 49 50 50 50 47 42 44 37 36 39 41 40 44 43 44 47 48 49 42 41 41 40 38 37 37 39 40 41 43 44 44 46 47 48 48 48 48 48 47 46 46 47 47 45 45 44 42 41 41 42 41 41
50 50 49 50 50 49 42 41 45 39 37 37 41 34 37 37 39 37 39 40 41 40 39 38 38 40 41 44 46 46 46 46 44 42 44 47 48 48 47 43 39 43 40 43 40 41 42 43 47 45 43 45 41 42
47 49 48 49 49 49 42 39 38 37 35 37 36 35 33 35 36 39 38 38 36 37 39 42 43 47 48 47 44 45 46 45 45 43 44 45 47 48 41 39 40 37 36 33 34 32 34 43 39 41 40 41 43 45
49 49 49 49 47 46 46 45 40 40 37 34 35 36 33 31 30 33 36 34 35 36 39 40 46 47 48 47 46 45 46 45 44 42 43 44 45 43 37 36 34 33 32 33 31 32 31 30 35 35 35 34 38 44
48 49 48 47 44 43 43 47 44 42 39 39 36 32 32 33 33 33 29 30 31 34 37 41 43 43 41 44 44 43 43 43 40 40 41 40 42 40 36 36 34 32 32 33 34 32 31 35 32 32 32 28 35 37
48 48 46 43 43 42 46 44 44 43 45 41 39 34 32 32 34 31 32 33 30 33 35 41 34 32 34 39 32 34 37 36 34 37 38 34 28 30 30 28 30 30 31 29 33 33 33 31 33 29 32 32 33 36
46 43 46 43 45 43 41 41 42 40 33 35 35 35 35 35 30 29 32 33 31 32 33 33 32 32 29 28 29 30 39 30 26 28 30 29 28 27 28 28 30 32 30 31 34 32 33 32 31 35 32 30 32 35
41 44 43 43 43 41 38 33 31 29 29 29 31 35 35 32 28 26 30 31 31 32 33 32 30 28 27 28 28 28 30 33 30 27 29 29 28 28 29 27 27 29 31 33 35 36 31 31 33 33 31 30 32 30
41 42 46 47 45 41 39 35 33 31 29 30 29 31 32 28 28 31 32 33 32 32 33 32 30 28 28 29 31 31 30 32 36 31 29 29 27 28 28 30 33 32 30 30 32 32 31 31 30 30 29 28 27 27
44 44 39 38 37 36 32 31 27 26 28 31 31 27 27 28 33 35 33 34 34 33 32 30 31 28 27 28 28 29 30 30 31 29 26 26 28 29 31 31 32 36 32 32 31 30 32 33 33 34 35 35 34 30
45 43 40 35 32 32 32 28 26 27 29 28 30 30 33 38 39 38 34 32 32 32 31 30 30 32 32 29 29 27 27 27 28 27 27 25 26 26 28 29 30 30 30 30 36 35 37 37 41 36 38 38 37 37
42 40 36 30 28 28 30 28 30 32 32 33 34 35 34 36 39 37 32 31 30 30 30 30 32 30 27 26 25 25 25 26 25 24 25 25 26 27 29 29 30 30 31 31 30 32 35 32 32 31 37 43 36 34
43 39 34 31 30 33 30 31 33 33 29 29 31 28 32 35 36 34 32 31 30 29 29 30 30 30 28 26 24 26 25 25 26 28 27 26 26 28 30 30 31 31 31 31 32 33 33 33 32 32 36 42 39 34
40 36 33 31 34 36 34 33 31 33 30 30 27 28 31 32 32 33 31 30 30 31 34 31 29 29 28 25 24 25 32 26 29 30 31 29 29 30 30 29 29 30 29 29 31 36 36 33 31 30 31 32 32 34
38 37 36 35 34 32 30 32 33 34 34 35 34 31 28 27 29 32 32 32 32 31 30 29 27 25 29 26 25 26 29 29 34 35 35 34 34 33 31 29 29 30 29 29 29 28 30 32 33 34 34 33 32 32
Lifted_Index
11 11 11 11 10 10 9 7 5 4 3 2 3 3 3 2 2 2 3 4 5 5 6 6 5 5 3 3 3 3 2 2 1 1 0 1 1 1 1 1 1 1 1 1 0 -0 -1 -2 -2 -2 -2 -2 -2 -2
10 10 10 10 10 9 8 7 5 4 3 3 3 3 3 3 3 3 3 5 6 6 6 6 6 5 4 4 4 3 2 1 1 1 1 1 1 1 1 1 1 1 1 1 0 -1 -1 -1 -2 -2 -2 -2 -2 -1
9 9 9 9 8 7 7 6 5 4 3 3 3 3 3 4 4 5 5 6 7 6 6 6 6 5 5 4 3 2 1 1 1 2 2 2 2 2 2 1 1 1 1 1 0 -0 -0 -1 -1 -1 -1 -1 -2 -2
8 7 7 7 6 6 5 5 4 4 3 3 3 4 5 5 6 7 7 7 6 6 6 6 6 5 4 3 2 1 1 1 2 2 2 2 3 3 2 2 1 1 0 0 1 0 0 -0 -0 -0 -1 -1 -2 -2
5 5 5 5 5 5 5 5 4 4 3 4 5 5 6 7 8 8 7 7 6 6 6 6 5 5 4 3 2 1 1 2 2 2 3 3 3 3 2 2 1 1 1 0 0 0 0 -0 -0 -0 -0 -1 -2 -2
4 4 4 5 5 5 5 5 5 5 5 5 6 7 7 8 8 8 7 7 7 6 5 5 5 4 3 2 2 2 2 2 2 3 3 3 3 3 2 1 1 1 1 1 1 1 0 0 0 0 -0 -1 -2 -3
4 5 5 5 5 6 6 6 6 6 6 6 7 7 8 8 7 7 6 6 6 5 4 4 3 3 2 2 2 2 2 2 3 3 3 3 3 3 2 1 1 1 1 1 1 1 1 1 0 0 -0 -1 -2 -2
5 5 6 6 6 7 7 7 7 7 7 7 7 8 7 7 6 6 6 6 5 4 3 2 2 2 2 2 2 2 2 2 3 3 3 3 3 3 2 1 1 1 1 1 1 2 2 1 1 1 0 -0 -1 -2
6 6 7 7 7 7 8 8 8 8 8 7 7 7 6 5 5 5 5 5 4 2 1 1 1 1 1 1 1 1 1 2 2 2 2 2 2 2 1 1 1 1 2 2 2 2 2 2 2 2 1 -0 -1 -2
6 6 7 7 7 8 8 8 8 8 7 6 5 5 4 4 4 4 4 3 2 1 0 0 0 0 1 1 1 1 1 1 1 1 1 2 2 1 1 1 1 2 2 2 2 3 3 3 3 2 1 0 -1 -1
6 6 7 7 8 8 8 7 7 6 5 4 3 3 3 3 2 2 2 1 1 1 0 0 0 0 0 1 1 1 1 1 1 1 1 1 1 1 1 1 2 2 3 3 3 4 4 3 3 2 2 1 0 -0
7 7 7 7 8 7 7 6 6 5 3 3 2 2 2 2 1 1 0 0 0 0 0 0 0 0 0 0 0 0 0 0 0 0 1 1 0 0 1 2 3 3 4 4 4 4 4 4 3 3 2 1 1 0
7 7 7 7 7 6 6 5 5 4 2 2 2 2 2 1 1 1 0 0 -0 -0 -0 -0 -0 0 0 0 0 0 -0 -0 -0 0 0 -0 -0 1 2 3 3 4 5 5 5 4 4 4 4 3 2 1 1 1
7 7 6 6 6 5 5 4 4 3 2 1 1 2 2 1 1 1 1 0 -0 -0 -0 -1 -0 -0 0 0 0 -0 -0 -0 -0 0 -0 -1 -0 1 2 3 4 5 5 5 5 5 4 4 4 4 3 2 2 2
7 6 6 6 5 4 4 3 3 2 1 1 1 1 1 1 1 1 1 1 0 0 -0 -0 -0 -0 -0 -0 -0 -0 -0 -0 -0 -0 -1 -1 0 2 3 4 5 5 5 5 5 5 5 5 4 4 4 4 4 4
6 6 5 5 5 4 3 3 2 1 1 1 1 1 1 1 1 1 1 1 1 1 0 0 0 0 0 0 0 0 0 0 -0 -0 -1 -0 1 2 3 4 5 5 5 5 5 6 6 5 5 5 5 5 5 6
4 4 5 5 4 4 3 2 1 1 1 1 1 1 1 1 1 1 1 1 1 1 1 1 1 1 1 1 1 1 1 0 0 0 0 1 1 2 3 4 4 4 4 4 5 5 6 6 5 5 5 6 6 6
3 4 5 4 4 3 2 1 1 2 2 1 1 1 0 0 0 0 0 0 1 2 2 2 1 1 1 1 1 1 1 2 1 1 2 2 2 3 3 4 4 4 4 4 4 4 5 5 5 5 5 6 6 6
4 4 4 4 3 2 1 1 1 2 2 1 1 1 1 0 0 1 0 1 1 2 2 2 2 2 2 2 2 2 3 3 3 3 3 3 4 4 4 4 4 4 3 3 3 3 4 4 4 4 5 5 5 5
4 4 3 3 2 1 1 1 1 1 1 1 1 1 1 1 1 1 1 1 1 1 2 2 2 2 2 3 3 3 4 4 4 4 4 4 4 4 4 4 4 4 3 3 3 3 3 3 3 3 3 4 4 4
3 3 3 2 1 0 0 0 1 1 1 1 1 1 1 1 1 1 1 1 1 1 1 1 1 1 2 2 3 3 3 4 4 4 4 4 4 4 4 4 3 3 3 3 2 2 2 2 2 2 2 3 3 3
3 2 2 1 0 -0 -0 -0 -0 -0 0 0 1 1 1 1 1 1 1 1 1 1 1 1 0 1 1 1 2 2 3 3 3 3 3 3 3 3 2 2 2 2 2 2 2 2 2 2 2 2 2 2 2 2
2 2 1 -0 -0 -0 -1 -1 -1 -1 -1 -1 -0 0 0 0 0 1 1 1 2 2 1 1 1 1 1 1 2 2 2 2 2 2 2 2 2 2 2 1 1 1 1 1 1 1 1 2 2 2 2 2 2 2
1 1 -0 -0 -1 -1 -1 -2 -2 -2 -2 -1 -1 -1 -0 0 0 1 1 2 2 2 2 2 2 2 2 2 2 2 2 2 2 2 2 2 2 2 2 1 1 1 1 1 0 0 1 1 1 1 1 1 1 1
0 -0 -1 -1 -1 -2 -2 -2 -2 -2 -2 -1 -1 -1 -1 -0 0 1 1 1 2 2 2 2 2 2 2 2 2 2 2 2 2 2 2 2 2 2 1 1 1 1 0 0 -0 -0 0 0 0 0 0 1 1 1
-1 -1 -2 -2 -2 -2 -2 -2 -2 -2 -1 -1 -1 -1 -1 -0 0 0 1 1 2 2 2 2 2 2 2 2 2 2 2 2 2 2 2 2 2 1 1 1 1 1 0 -0 -0 -0 -0 -0 -1 -0 -0 0 1 1
-1 -2 -3 -3 -3 -2 -2 -1 -1 -1 -1 -1 -1 -1 -0 -0 -0 0 1 2 2 2 2 2 2 2 2 2 2 2 2 2 2 2 2 2 2 2 1 1 1 1 1 0 -0 -0 -1 -1 -1 -1 -1 0 1 1
-2 -2 -2 -2 -2 -1 -1 -1 -0 -1 -1 -0 -0 -0 -0 -0 0 1 1 2 3 3 3 3 3 2 2 3 3 3 2 2 2 3 3 3 3 2 2 2 2 1 1 1 0 -0 -1 -1 -1 -1 -1 -1 -0 0
-2 -2 -2 -1 -0 0 0 0 1 1 1 1 1 1 1 1 1 1 2 3 3 3 3 3 3 3 3 3 3 3 3 3 3 3 3 3 3 3 3 3 2 2 2 1 1 0 -0 -0 -0 -1 -1 -1 -1 -0
-2 -2 -1 -0 0 1 1 1 1 2 2 2 2 2 2 2 2 3 3 4 4 4 3 3 3 3 3 4 4 4 4 4 4 4 3 3 3 3 3 3 3 2 2 2 1 1 1 1 0 0 0 0 -0 -0
-2 -1 -0 0 1 1 2 2 2 2 2 3 3 3 3 3 3 4 4 4 4 4 4 4 3 4 4 4 5 5 4 4 4 4 4 3 3 3 3 3 3 2 2 2 2 2 2 2 1 1 1 1 1 1
-1 -0 0 0 1 1 2 2 1 2 2 2 3 3 3 3 4 4 4 4 4 4 4 4 4 4 5 5 5 5 5 5 4 4 4 4 4 3 3 3 3 3 3 3 3 2 2 2 2 2 2 2 2 2
-0 -0 0 0 1 1 2 1 1 1 1 1 2 3 3 3 4 4 4 5 4 4 4 4 5 5 5 6 6 6 5 5 5 5 5 4 4 4 4 4 3 3 3 3 3 3 3 3 3 3 3 2 2 3